This is the latest recevied weather packets stored in our database for station/object KB9ZGZ. If no packets are shown the sender has not sent any weather packets the latest 10 day(s).
| Time | Temp. | Humidity | Pressure | Rain* | Wind** | Luminosity | Snow |
|---|---|---|---|---|---|---|---|
| 1777580188 | 17.22° C | 43% | 1011.4 hPa | 0.25 mm | - | - | - |
| 1777579257 | 16.67° C | 44% | 1011.7 hPa | 0.25 mm | - | - | - |
| 1777578357 | 16.11° C | 47% | 1011.8 hPa | 0.25 mm | - | - | - |
| 1777577456 | 16.11° C | 44% | 1012 hPa | 0.25 mm | - | - | - |
| 1777576555 | 16.67° C | 43% | 1012 hPa | 0.25 mm | - | - | - |
| 1777575623 | 16.67° C | 45% | 1012 hPa | 0.25 mm | - | - | - |
| 1777574723 | 16.67° C | 44% | 1012 hPa | 0.25 mm | - | - | - |
| 1777573882 | 17.22° C | 43% | 1012.2 hPa | 0.25 mm | - | - | - |
| 1777572970 | 17.22° C | 44% | 1012.4 hPa | 0.25 mm | - | - | - |
| 1777572066 | 17.22° C | 45% | 1012.5 hPa | 0.25 mm | - | - | - |
| 1777572064 | 17.22° C | 45% | 1012.5 hPa | 0.25 mm | - | - | - |
| 1777571165 | 17.22° C | 46% | 1012.6 hPa | 0.25 mm | - | - | - |
| 1777570243 | 16.67° C | 47% | 1013 hPa | 0.25 mm | - | - | - |
| 1777569342 | 16.67° C | 44% | 1012.9 hPa | 0.25 mm | - | - | - |
| 1777568439 | 16.11° C | 43% | 1013 hPa | 0 mm | - | - | - |
| 1777567535 | 16.11° C | 46% | 1013 hPa | 0.25 mm | - | - | - |
| 1777566661 | 15.56° C | 48% | 1013 hPa | 0.25 mm | - | - | - |
| 1777565734 | 15° C | 47% | 1013.1 hPa | 0.25 mm | - | - | - |
| 1777564833 | 15° C | 47% | 1013.1 hPa | 0.25 mm | - | - | - |
| 1777563933 | 15° C | 50% | 1013.1 hPa | 0.25 mm | - | - | - |
| 1777563031 | 14.44° C | 48% | 1013.1 hPa | 0.25 mm | - | - | - |
| 1777562130 | 13.89° C | 48% | 1013.1 hPa | 0.25 mm | - | - | - |
| 1777561235 | 13.89° C | 48% | 1013.2 hPa | 0.25 mm | - | - | - |
| 1777560326 | 13.89° C | 48% | 1013 hPa | 0.25 mm | - | - | - |
| 1777559426 | 13.33° C | 55% | 1013.2 hPa | 0.25 mm | - | - | - |
* Rain since midnight (hover to see other rain measurements)
** Current wind speed in m/s (hover to see current wind gust speed)